Wind_Speed
20 19 22 31 36 45 54 58 59 57 52 35 33 36 38 34 31 27 23 16 9 9 8 6 4 5 6 5 4 5 8 10 10 11 12 13 11 8 7 9 6 6 6 3
20 22 18 27 36 42 54 58 57 59 44 47 44 43 39 36 34 30 22 15 13 10 6 4 4 5 5 4 3 5 8 9 7 6 7 6 7 6 7 6 5 6 6 2
23 22 22 22 24 41 51 58 60 58 50 49 49 46 42 39 36 30 24 19 16 13 7 4 5 6 4 3 3 5 8 4 4 5 2 2 3 4 6 7 6 7 7 3
20 23 23 13 22 33 55 61 61 58 55 54 51 48 45 39 37 32 26 24 18 12 9 7 7 7 5 3 2 3 3 3 4 1 1 3 4 6 6 7 6 7 7 3
17 21 13 11 13 22 49 60 61 53 61 54 55 52 47 41 37 32 28 22 20 15 12 9 9 8 6 4 2 1 3 1 3 3 3 5 6 6 7 9 6 8 7 3
12 15 7 5 12 19 34 51 59 50 65 59 58 54 49 44 35 33 26 22 18 15 14 12 11 9 7 5 3 4 3 1 3 5 5 4 3 4 7 10 9 10 8 2
9 8 3 9 10 17 36 47 58 57 66 61 56 52 49 42 39 32 28 21 18 15 13 13 13 11 8 6 6 6 4 1 3 5 4 2 1 1 7 11 12 12 8 9
7 13 11 3 5 21 29 49 57 54 65 62 57 54 49 43 38 35 31 25 19 16 16 16 13 12 9 8 8 7 6 5 3 7 6 3 3 3 10 13 13 15 10 16
10 17 11 6 9 8 29 34 47 60 66 58 57 52 48 43 40 24 27 24 21 17 19 16 14 13 11 10 9 8 9 7 8 9 6 6 5 6 11 9 14 15 15 15
14 11 8 20 7 5 19 30 50 61 63 58 56 55 48 38 44 38 31 25 19 17 18 17 17 15 13 11 10 9 11 8 8 9 7 7 6 9 11 12 14 13 12 10
14 20 26 13 16 23 29 38 52 60 63 58 54 49 40 42 41 38 31 27 22 25 21 18 18 17 15 13 11 10 12 10 8 8 9 9 8 10 11 14 14 13 9 8
15 18 24 12 24 26 23 40 41 53 62 54 51 48 38 29 44 42 38 32 25 25 23 22 19 17 15 13 12 12 14 12 10 9 10 9 12 14 12 11 10 8 7 7
10 14 17 21 27 33 32 35 39 45 63 55 52 47 34 29 43 48 41 32 25 25 24 21 19 17 14 13 12 13 14 13 13 12 14 15 16 17 18 17 18 17 14 12
18 18 24 21 26 40 33 44 32 38 46 57 46 41 37 34 44 42 38 33 27 24 22 18 15 13 11 11 11 13 14 14 14 16 18 17 16 16 16 17 18 19 18 18
17 20 17 15 23 25 29 45 41 41 37 47 51 42 33 39 46 33 32 28 29 25 22 24 20 15 11 9 8 10 15 16 16 17 17 16 15 14 14 15 16 16 15 15
13 15 17 18 20 20 14 31 19 19 17 41 47 44 35 30 26 25 24 24 24 29 21 19 25 20 16 12 9 7 11 15 17 19 19 16 14 13 13 14 15 14 14 13
15 12 9 13 19 18 12 14 12 13 22 37 36 34 34 28 26 23 25 24 22 21 19 15 19 20 19 17 14 13 10 11 16 18 19 19 17 14 12 10 10 11 11 10
12 11 8 5 12 16 13 12 17 19 19 18 28 38 39 34 31 28 28 26 28 26 26 26 22 20 21 22 21 18 17 15 13 13 17 18 18 18 17 14 13 11 10 10
10 15 12 10 13 17 19 19 19 24 25 26 26 37 40 33 34 32 29 28 27 28 26 25 26 24 27 26 26 23 21 21 20 17 15 14 15 18 19 18 17 16 14 14
13 13 17 16 12 16 22 21 21 26 27 27 26 27 27 30 31 33 28 27 27 26 27 27 23 30 33 34 29 28 28 24 21 20 19 18 16 15 15 16 17 18 19 19
19 18 18 21 22 17 17 22 24 26 28 28 28 28 30 29 30 30 27 24 25 27 27 27 30 26 29 40 36 33 30 29 28 24 20 19 18 18 16 16 16 15 15 16
13 23 22 21 21 25 24 23 25 23 25 27 29 32 35 33 32 29 27 23 25 25 29 32 34 35 33 33 43 40 37 36 33 30 27 26 25 23 22 21 20 20 19 18
4 11 20 22 20 21 25 29 28 28 29 27 25 27 28 29 28 28 28 26 24 26 28 32 37 37 38 32 33 32 32 44 40 37 35 34 32 31 29 29 28 27 26 26
13 12 14 22 25 25 24 23 29 34 35 34 31 30 27 25 25 25 25 24 23 26 29 33 38 42 41 39 37 36 35 35 30 31 35 37 36 38 36 35 34 34 34 33
6 6 11 19 24 27 28 25 25 24 26 28 29 31 32 33 30 29 29 28 28 28 30 34 37 43 45 46 46 45 43 41 39 38 36 35 34 34 35 36 40 42 44 44
5 6 8 10 17 21 25 30 32 31 28 24 25 27 28 31 31 33 34 34 33 34 34 35 35 38 42 48 48 45 43 49 50 49 47 46 44 43 43 43 43 43 44 44
11 9 7 9 12 16 22 25 28 34 37 35 32 30 29 29 29 32 33 35 39 39 40 41 42 41 40 40 40 41 43 47 47 48 52 54 52 51 52 52 53 53 53 52
Wind_Direction
244 244 249 232 231 225 211 204 204 205 201 189 191 176 169 175 187 199 197 196 191 201 219 199 217 251 262 261 245 286 304 304 293 290 283 273 266 250 238 228 245 246 222 279
249 247 266 245 235 227 213 203 202 206 188 187 182 179 173 180 187 187 185 188 185 194 204 213 247 248 236 240 256 299 318 321 314 302 283 264 247 253 233 224 233 224 199 241
242 250 266 243 239 228 218 206 203 204 172 176 175 174 179 188 186 184 184 180 183 185 194 251 255 225 227 219 272 310 331 345 333 294 272 238 228 239 231 218 214 201 204 231
255 258 253 226 228 233 214 205 207 203 177 178 180 178 183 190 189 186 190 183 181 183 184 234 226 206 209 209 272 328 42 44 354 349 234 244 238 237 224 190 194 186 187 201
263 254 248 262 218 228 219 206 203 194 181 174 182 186 187 192 190 188 191 188 183 181 186 218 205 201 189 198 238 44 92 31 314 298 257 248 263 254 218 195 183 170 172 197
229 257 290 258 239 217 219 210 206 182 180 174 183 184 190 193 190 187 190 196 188 186 195 203 190 190 180 194 193 115 144 91 8 357 322 278 258 251 196 191 176 161 170 31
241 261 215 231 266 206 210 199 200 182 178 179 185 179 187 189 182 194 194 185 196 196 198 195 190 174 174 182 155 145 161 126 5 355 26 80 8 150 178 171 165 161 154 139
317 320 342 331 253 205 197 196 198 179 178 182 180 183 187 180 185 202 190 180 197 197 194 190 182 165 168 170 150 145 125 87 51 41 48 60 63 113 158 161 158 155 136 130
14 357 323 272 188 191 187 191 189 182 179 180 179 185 181 188 189 185 177 185 199 193 189 184 170 165 168 164 147 143 112 92 72 62 63 60 69 122 146 158 155 152 135 124
29 70 105 150 212 207 168 166 178 183 181 180 183 187 191 197 205 194 180 189 191 189 191 176 165 164 162 156 141 139 117 115 90 74 76 52 74 115 138 154 159 155 134 124
64 66 115 146 129 126 145 160 178 183 184 184 187 194 195 184 182 180 185 189 192 181 178 173 167 163 159 150 141 132 124 135 126 101 89 67 84 109 118 137 152 166 165 160
44 68 106 153 147 128 170 165 173 183 190 187 192 191 194 197 194 183 190 182 183 183 176 166 169 164 157 150 142 131 131 142 138 117 111 96 93 99 107 119 136 148 154 164
69 124 106 168 190 150 146 167 174 183 190 191 189 195 190 200 192 184 184 174 176 179 178 171 174 169 163 154 151 137 136 140 140 131 127 114 105 101 102 103 102 98 103 116
75 110 124 146 171 170 177 155 168 189 196 195 192 194 200 195 191 182 183 168 174 176 181 176 186 174 169 160 163 154 146 143 143 144 140 131 120 113 111 109 107 107 108 111
70 117 153 161 180 202 201 151 160 155 170 204 202 206 206 198 194 184 169 179 176 182 181 181 183 183 172 171 175 183 163 157 153 158 158 151 143 134 124 117 113 111 114 117
98 104 130 162 162 166 162 213 223 229 187 194 198 203 185 178 175 178 175 185 191 184 184 178 186 187 184 177 193 205 196 177 169 166 173 174 170 162 150 137 129 125 123 119
124 102 121 167 198 216 226 242 251 180 166 183 187 188 193 193 191 182 185 192 200 201 200 205 182 194 198 193 190 205 210 203 195 185 182 187 193 193 191 180 168 154 143 132
133 130 132 170 178 177 187 189 199 205 218 206 203 190 195 202 203 201 202 200 205 210 217 217 206 197 199 202 195 196 208 212 209 208 206 202 202 205 208 210 209 204 195 188
163 160 170 184 184 189 192 195 192 200 206 197 193 196 191 195 201 198 197 200 209 217 221 231 217 221 199 198 194 190 199 211 215 210 211 207 212 223 227 227 228 230 231 232
200 185 181 185 183 187 188 182 189 203 203 194 198 203 202 206 208 207 215 221 221 223 228 233 246 228 229 197 198 197 189 194 202 203 208 213 215 215 219 226 232 240 243 244
211 204 198 195 185 198 201 199 199 192 188 187 193 194 199 199 203 207 210 211 222 228 233 237 237 247 262 206 204 205 205 206 200 202 207 211 216 219 223 229 233 235 234 235
235 232 219 208 205 192 199 203 200 197 207 210 209 208 211 213 217 217 219 221 230 230 233 238 236 235 247 246 213 212 216 216 218 215 216 218 219 223 227 233 238 240 242 245
291 257 245 228 222 212 203 206 208 206 202 203 203 212 216 220 223 226 226 228 225 224 232 239 241 239 241 243 248 237 220 217 222 223 224 224 226 231 233 236 240 243 244 246
286 284 241 229 219 222 219 215 211 214 217 215 214 215 218 221 226 229 231 233 235 234 234 237 237 238 241 244 249 248 251 243 232 234 233 231 235 236 233 238 241 246 248 249
272 240 222 226 223 220 221 224 227 225 223 222 224 226 228 227 225 231 234 232 233 237 242 240 240 237 239 243 250 252 251 243 243 248 249 247 251 258 259 250 243 244 245 244
300 251 228 228 229 234 236 231 229 235 238 236 233 231 231 235 234 231 234 238 236 240 242 244 243 243 243 243 247 247 250 246 247 246 246 246 246 249 252 254 256 257 258 259
282 252 250 251 236 230 238 246 246 238 235 241 243 240 237 236 237 238 237 238 239 241 247 245 245 246 245 246 248 249 248 247 247 249 247 247 250 250 251 254 254 254 256 256
Height
5545 5546 5547 5548 5552 5558 5564 5578 5589 5601 5618 5632 5640 5648 5656 5665 5672 5679 5684 5689 5691 5695 5696 5697 5697 5699 5700 5701 5702 5702 5701 5700 5699 5697 5696 5694 5693 5693 5693 5693 5694 5693 5694 5694
5541 5542 5541 5543 5547 5553 5560 5571 5584 5592 5614 5623 5634 5644 5653 5660 5667 5674 5679 5683 5687 5690 5693 5694 5695 5696 5697 5699 5699 5699 5698 5697 5695 5694 5692 5691 5690 5690 5690 5692 5692 5693 5694 5693
5536 5537 5536 5538 5543 5544 5552 5562 5574 5584 5612 5619 5628 5638 5648 5656 5665 5670 5675 5679 5684 5686 5689 5691 5692 5694 5695 5697 5697 5697 5695 5693 5693 5692 5691 5690 5689 5689 5690 5690 5691 5692 5693 5693
5533 5533 5531 5534 5535 5539 5544 5554 5563 5578 5603 5612 5623 5633 5644 5653 5661 5667 5671 5675 5679 5683 5684 5687 5690 5692 5693 5694 5695 5695 5693 5692 5692 5691 5690 5689 5689 5689 5689 5690 5691 5692 5692 5692
5529 5529 5531 5531 5531 5534 5538 5551 5560 5579 5597 5607 5620 5630 5640 5649 5656 5664 5668 5674 5676 5679 5682 5685 5687 5690 5691 5692 5693 5692 5692 5692 5691 5690 5689 5689 5688 5687 5688 5689 5690 5691 5692 5693
5528 5528 5527 5527 5527 5529 5532 5546 5556 5581 5593 5603 5614 5627 5638 5646 5656 5661 5666 5671 5675 5677 5680 5683 5685 5687 5689 5691 5691 5691 5691 5691 5690 5689 5688 5687 5686 5685 5686 5688 5690 5691 5692 5693
5525 5525 5525 5524 5524 5525 5532 5550 5557 5576 5590 5600 5612 5627 5635 5645 5653 5658 5663 5669 5674 5676 5679 5682 5684 5685 5688 5689 5690 5690 5691 5690 5689 5689 5687 5686 5685 5684 5685 5688 5690 5692 5694 5696
5527 5524 5523 5522 5522 5524 5534 5544 5556 5576 5588 5600 5613 5623 5633 5643 5649 5654 5659 5666 5672 5675 5677 5681 5683 5684 5687 5688 5689 5690 5690 5689 5689 5688 5687 5687 5686 5685 5685 5688 5691 5694 5696 5697
5530 5528 5524 5522 5522 5527 5532 5544 5560 5574 5586 5600 5611 5621 5631 5638 5646 5647 5657 5665 5671 5674 5677 5680 5682 5684 5686 5687 5688 5689 5689 5690 5690 5690 5690 5688 5687 5686 5688 5691 5693 5696 5699 5700
5534 5531 5528 5526 5526 5529 5538 5550 5563 5575 5588 5599 5610 5619 5629 5638 5646 5653 5657 5663 5669 5673 5678 5678 5680 5683 5685 5687 5688 5688 5688 5691 5692 5692 5692 5691 5690 5689 5690 5692 5696 5699 5701 5702
5534 5531 5527 5531 5532 5537 5545 5555 5565 5577 5589 5600 5610 5621 5629 5635 5643 5649 5655 5662 5668 5671 5674 5677 5680 5683 5685 5686 5687 5688 5689 5692 5694 5694 5694 5694 5692 5692 5693 5695 5698 5701 5703 5704
5536 5532 5534 5536 5535 5545 5554 5560 5570 5579 5591 5601 5611 5620 5627 5633 5640 5646 5656 5660 5665 5671 5672 5673 5679 5683 5685 5686 5687 5689 5690 5693 5695 5696 5698 5698 5697 5697 5698 5699 5700 5702 5704 5706
5539 5539 5538 5538 5538 5548 5557 5565 5574 5582 5591 5600 5609 5617 5625 5631 5636 5645 5652 5658 5663 5666 5669 5672 5679 5682 5685 5686 5688 5690 5692 5695 5697 5698 5700 5702 5702 5702 5703 5703 5703 5704 5706 5708
5543 5542 5542 5543 5546 5549 5552 5564 5576 5583 5591 5600 5609 5616 5622 5628 5635 5641 5647 5652 5659 5664 5669 5674 5680 5682 5684 5687 5690 5692 5693 5696 5698 5700 5702 5704 5706 5707 5708 5708 5709 5710 5711 5713
5547 5548 5548 5552 5555 5558 5560 5569 5577 5583 5590 5598 5608 5613 5620 5623 5633 5637 5644 5650 5656 5662 5667 5672 5677 5681 5684 5687 5690 5693 5695 5697 5699 5702 5704 5706 5708 5709 5711 5711 5712 5714 5716 5717
5553 5552 5554 5558 5560 5564 5569 5574 5576 5581 5585 5594 5606 5614 5618 5623 5630 5636 5641 5649 5655 5660 5665 5669 5674 5678 5681 5685 5690 5693 5697 5698 5699 5701 5704 5707 5709 5711 5713 5714 5715 5716 5718 5720
5557 5558 5558 5560 5566 5568 5571 5574 5579 5584 5591 5600 5607 5614 5620 5626 5632 5636 5643 5648 5652 5656 5660 5665 5671 5675 5679 5683 5687 5692 5696 5699 5701 5701 5703 5706 5709 5712 5714 5716 5717 5718 5719 5722
5559 5561 5563 5562 5564 5569 5574 5580 5582 5588 5594 5600 5605 5612 5619 5624 5631 5637 5641 5645 5651 5655 5658 5662 5667 5672 5676 5680 5684 5688 5693 5696 5699 5701 5703 5705 5707 5710 5712 5714 5716 5718 5720 5721
5559 5562 5565 5566 5568 5569 5574 5579 5581 5587 5592 5596 5603 5608 5615 5622 5629 5635 5639 5643 5647 5651 5655 5658 5662 5667 5670 5677 5680 5683 5687 5692 5695 5698 5700 5702 5704 5708 5710 5712 5714 5717 5719 5721
5557 5559 5563 5566 5567 5570 5574 5578 5582 5586 5590 5595 5600 5607 5613 5620 5625 5630 5636 5640 5644 5648 5651 5655 5659 5663 5665 5671 5675 5678 5680 5686 5691 5693 5695 5698 5700 5702 5704 5707 5709 5712 5715 5717
5557 5559 5560 5564 5567 5569 5571 5575 5581 5586 5590 5594 5600 5605 5611 5617 5622 5626 5630 5634 5637 5641 5644 5648 5654 5659 5661 5664 5669 5674 5678 5681 5682 5686 5690 5693 5695 5698 5700 5703 5704 5706 5709 5710
5557 5556 5557 5560 5564 5567 5570 5574 5577 5580 5585 5590 5595 5600 5606 5610 5615 5619 5622 5626 5631 5634 5637 5641 5646 5652 5654 5658 5662 5666 5670 5674 5678 5679 5683 5686 5688 5692 5695 5697 5700 5701 5703 5704
5557 5557 5555 5555 5558 5563 5566 5570 5574 5578 5582 5586 5589 5594 5598 5604 5607 5611 5616 5620 5623 5625 5629 5633 5638 5643 5647 5650 5653 5654 5658 5665 5668 5671 5674 5677 5680 5684 5687 5689 5692 5694 5696 5697
5551 5552 5553 5555 5557 5558 5562 5566 5569 5574 5578 5580 5584 5587 5592 5595 5599 5602 5607 5610 5614 5617 5621 5626 5630 5634 5638 5642 5645 5648 5651 5653 5658 5661 5665 5668 5671 5673 5676 5680 5683 5685 5687 5689
5546 5546 5549 5552 5555 5558 5560 5561 5564 5567 5570 5572 5575 5579 5584 5587 5591 5594 5598 5602 5606 5610 5614 5618 5622 5626 5630 5633 5636 5640 5644 5646 5649 5652 5655 5658 5660 5663 5666 5668 5671 5674 5675 5676
5543 5544 5545 5547 5549 5551 5555 5558 5560 5561 5563 5564 5568 5571 5574 5579 5582 5585 5589 5593 5597 5602 5606 5610 5613 5616 5619 5623 5626 5628 5631 5635 5638 5641 5644 5647 5649 5652 5654 5657 5659 5661 5663 5664
5542 5542 5541 5543 5545 5547 5549 5551 5554 5556 5559 5561 5563 5566 5568 5570 5574 5577 5579 5583 5587 5591 5596 5599 5603 5606 5608 5611 5614 5617 5619 5622 5625 5627 5629 5632 5635 5637 5639 5641 5643 5645 5647 5649